[[{"header":{"parameterUnit":"m.s-1","parameterCategory":1,"la1":30.2992,"la2":30.254,"lo1":-89.0895,"lo2":-89.0443,"dy":0.0025,"dx":0.0025,"nx":19,"ny":19,"refTime":"2026-05-12T09:00:00:Z","depth":0,"parameterNumber":2,"parameterNumberName":"U-component_of_WINDS"},"data":[0,0,0,1.8027,1.8028,1.8075,1.8076,1.8142,1.8142,0,0,0,0,0,0,0,0,0,0,0,1.8016,1.8017,1.8027,1.8028,1.8075,1.8076,1.8141,1.8142,0,0,0,0,0,0,0,0,0,0,0,1.8016,1.8016,1.8017,1.8028,1.8075,1.8076,1.8141,1.8104,0,0,0,0,0,0,0,0,0,0,1.8057,1.805,1.8016,1.8017,1.8029,1.8075,1.8076,1.8102,1.8106,1.8122,0,1.8138,0,1.8141,1.8147,1.8147,0,0,0,1.8026,1.8046,1.8056,1.8017,1.8029,1.8075,1.8053,1.8104,1.8109,1.8128,1.8138,1.8141,1.8142,1.8147,1.8148,1.825,1.8251,0,0,1.8023,1.8026,1.8053,1.8059,1.8052,1.8052,1.8055,1.8107,1.8118,1.8139,1.8142,1.8143,1.8148,1.8148,1.825,1.825,0,0,0,1.8017,1.8024,1.8033,1.8057,1.8065,1.8053,1.8057,1.8116,1.8119,1.8143,1.8144,1.8148,1.8149,1.8249,1.825,1.8282,0,0,0,1.8016,1.8021,1.8032,1.8034,1.8064,1.8091,1.8065,1.8115,1.8121,1.8144,1.8148,1.815,1.8248,1.8249,1.828,1.8297,0,0,0,1.8012,1.802,1.8028,1.8034,1.8055,1.809,1.8096,1.8116,1.8122,1.8147,1.815,1.8248,1.8249,1.8278,1.8294,1.8326,0,0,0,1.8009,1.8056,1.8029,1.8082,1.8055,1.811,1.8095,1.8136,1.8162,1.8149,1.8248,1.825,1.8277,1.8292,1.8324,1.8354,1.8366,0,0,1.807,1.8063,1.8094,1.8072,1.8133,1.8102,1.8168,1.8189,1.8188,1.823,1.8232,1.8281,1.8294,1.8325,1.8435,1.8445,0,0,0,1.8115,1.8137,1.8153,1.8178,1.8195,1.8211,1.8221,1.8229,1.8264,1.821,1.83,1.8308,1.8326,1.8341,1.8349,1.8365,1.8256,1.8256,1.8256,1.8206,1.8203,1.8255,1.8258,1.8282,1.8293,1.8313,1.8325,1.8315,1.8336,1.8349,1.8415,1.8432,1.8439,1.8455,1.8364,1.8364,1.8364,1.8364,1.8296,1.8328,1.8314,1.8359,1.8356,1.8394,1.8406,1.8398,1.8433,1.8405,1.8422,1.8392,1.845,1.8464,1.8366,1.8366,1.8366,1.8365,1.8365,1.8355,1.837,1.8379,1.8416,1.8444,1.8446,1.8481,1.8476,1.8473,1.8489,1.8502,1.8502,1.8501,1.8495,1.8495,1.8496,1.8496,1.8496,1.8496,1.8414,1.8423,1.8453,1.8476,1.8492,1.8512,1.8524,1.854,1.8556,1.8551,1.8551,1.8539,1.8455,1.8435,1.85,1.8499,1.8499,1.8498,1.8498,1.8508,1.8486,1.8532,1.8548,1.8575,1.8605,1.8599,1.8631,1.8644,1.8661,1.8646,1.8585,1.8578,1.8571,1.8554,1.8646,1.8646,1.8646,1.8646,1.8559,1.8555,1.8602,1.8628,1.8653,1.8653,1.8706,1.8716,1.8723,1.8731,1.8717,1.8694,1.8687,1.8684,1.8675,1.8659,1.8775,1.8775,1.8776,1.8617,1.8615,1.8661,1.8667,1.8688,1.8707,1.8757,1.8788,1.8791,1.8781,1.8737,1.8731,1.8694,1.8682,1.8671,1.8657,1.8627,0,0]},{"header":{"parameterUnit":"m.s-1","parameterCategory":1,"la1":30.2992,"la2":30.254,"lo1":-89.0895,"lo2":-89.0443,"dy":0.0025,"dx":0.0025,"nx":19,"ny":19,"refTime":"2026-05-12T09:00:00:Z","depth":0,"parameterNumber":3,"parameterNumberName":"V-component_of_WINDS"},"data":[0,0,0,-0.2092,-0.2092,-0.2103,-0.2103,-0.2115,-0.2115,0,0,0,0,0,0,0,0,0,0,0,-0.2087,-0.2087,-0.2092,-0.2092,-0.2103,-0.2103,-0.2115,-0.2115,0,0,0,0,0,0,0,0,0,0,0,-0.2087,-0.2087,-0.2087,-0.2092,-0.2103,-0.2103,-0.2115,-0.2108,0,0,0,0,0,0,0,0,0,0,-0.2097,-0.2091,-0.2087,-0.2087,-0.2092,-0.2103,-0.2103,-0.2108,-0.2108,-0.2109,0,-0.2109,0,-0.2112,-0.2116,-0.2116,0,0,0,-0.2094,-0.209,-0.2095,-0.2087,-0.2092,-0.2103,-0.2099,-0.2108,-0.2109,-0.211,-0.2109,-0.211,-0.2113,-0.2116,-0.2116,-0.2115,-0.2115,0,0,-0.2093,-0.2088,-0.2094,-0.2095,-0.2093,-0.2098,-0.2099,-0.2109,-0.2108,-0.2109,-0.211,-0.2113,-0.2116,-0.2116,-0.2115,-0.2115,0,0,0,-0.209,-0.2088,-0.2092,-0.2095,-0.2097,-0.2099,-0.2099,-0.2107,-0.2109,-0.211,-0.2113,-0.2116,-0.2116,-0.2115,-0.2115,-0.2106,0,0,0,-0.209,-0.2086,-0.2092,-0.2089,-0.2097,-0.2102,-0.2098,-0.2108,-0.2109,-0.2113,-0.2116,-0.2116,-0.2116,-0.2115,-0.2107,-0.2103,0,0,0,-0.2087,-0.2086,-0.2087,-0.2088,-0.2093,-0.2102,-0.2104,-0.2109,-0.2111,-0.2116,-0.2117,-0.2116,-0.2115,-0.2107,-0.2103,-0.21,0,0,0,-0.2082,-0.2079,-0.2086,-0.2084,-0.2093,-0.2096,-0.2104,-0.2107,-0.2111,-0.2116,-0.2116,-0.2115,-0.2107,-0.2104,-0.2101,-0.2096,-0.2094,0,0,-0.2075,-0.2078,-0.2077,-0.2084,-0.2084,-0.2095,-0.2095,-0.2103,-0.2108,-0.2113,-0.2113,-0.2106,-0.2103,-0.21,-0.2085,-0.2084,0,0,0,-0.2073,-0.2072,-0.2073,-0.2076,-0.2082,-0.2086,-0.2095,-0.2098,-0.2102,-0.2109,-0.2105,-0.2103,-0.2102,-0.21,-0.2099,-0.2097,-0.2114,-0.2114,-0.2115,-0.2056,-0.2063,-0.2061,-0.2069,-0.2072,-0.208,-0.2083,-0.2089,-0.2095,-0.2094,-0.2095,-0.2085,-0.2083,-0.2082,-0.208,-0.2094,-0.2094,-0.2094,-0.2094,-0.2046,-0.2046,-0.2054,-0.2055,-0.2062,-0.2064,-0.2072,-0.2077,-0.2079,-0.2085,-0.2084,-0.2089,-0.208,-0.2079,-0.2093,-0.2093,-0.2093,-0.2094,-0.2094,-0.2035,-0.2036,-0.2039,-0.2044,-0.2046,-0.2055,-0.2056,-0.2063,-0.207,-0.2069,-0.207,-0.207,-0.2071,-0.2069,-0.2069,-0.2069,-0.2069,-0.2069,-0.2069,-0.2022,-0.2026,-0.2027,-0.2032,-0.2034,-0.2039,-0.2047,-0.205,-0.2055,-0.2059,-0.2059,-0.2066,-0.2078,-0.208,-0.2068,-0.2068,-0.2069,-0.2069,-0.2069,-0.2008,-0.2013,-0.2013,-0.2015,-0.2022,-0.2024,-0.2033,-0.2037,-0.2041,-0.2041,-0.2048,-0.2056,-0.2059,-0.206,-0.2062,-0.2047,-0.2047,-0.2047,-0.2047,-0.1999,-0.2001,-0.2002,-0.2005,-0.2009,-0.2017,-0.2017,-0.2024,-0.2032,-0.2034,-0.2038,-0.2041,-0.2042,-0.2045,-0.2047,-0.2048,-0.203,-0.203,-0.203,-0.199,-0.1993,-0.1992,-0.1999,-0.2005,-0.201,-0.201,-0.2013,-0.2023,-0.2029,-0.2036,-0.2037,-0.2043,-0.2044,-0.205,-0.2052,-0.2056,0,0]}]]